Location: Melque
(41.0517°N, 4.4694°W)
Time: 19:47:38
(UTC+00:00)

Meteor 1-20 Rocket - Pass Details

Date: 15 March 2026
Orbit: 817 x 891 km, 81.2° (Epoch: 14 April)

Event Time Altitude Azimuth Distance (km) Brightness Sun altitude
Rises 05:28:53 0° 350° (N) 3,454 7.4 -12.3°
Reaches altitude 10° 05:31:20 10° 350° (N) 2,502 6.6 -11.8°
Maximum altitude 05:37:02 90° 271° (W) 852 4.2 -10.8°
Drops below altitude 10° 05:42:34 10° 172° (S) 2,436 6.6 -9.7°
Sets 05:44:56 0° 173° (S) 3,357 7.4 -9.3°
